Torna al catalogo

TANDEM X

AttivoScienzaSSO
NORAD 36605·PAYLOAD·🇩🇪 Germany

Lanciato Jun 21, 2010 da Baikonur Cosmodrome

Loading…

Prossimi Passaggi (prossime 24 ore)

TLE

AggiornatoSource: CelesTrak SupGP

Epoca: Sep 14, 2026, 00:01 UTC

1 36605C 10030A   26257.00118056  .00001096  00000+0  52269-4 0  2577
2 36605  97.4469 263.4511 0001981  94.3342   9.5395 15.19147710    15

Traccia TANDEM X in tempo reale con AllMySat

Download on the App Store